This is the latest recevied weather packets stored in our database for station/object WX7FGZ-6. If no packets are shown the sender has not sent any weather packets the latest 10 day(s).
| Time | Temp. | Humidity | Pressure | Rain* | Wind** | Luminosity | Snow |
|---|---|---|---|---|---|---|---|
| 1778097600 | 3.89° C | 55% | 1021.8 hPa | 1.02 mm | - | - | - |
| 1778097456 | 3.89° C | 55% | 1021.8 hPa | 1.02 mm | - | - | - |
| 1778097029 | 3.33° C | 53% | 1021.6 hPa | 1.02 mm | - | - | - |
| 1778096731 | 3.89° C | 54% | 1021.7 hPa | 1.02 mm | - | - | - |
| 1778096429 | 3.89° C | 54% | 1021.6 hPa | 1.02 mm | - | - | - |
| 1778096314 | 3.89° C | 58% | 1021.4 hPa | 1.02 mm | - | - | - |
| 1778096129 | 3.89° C | 58% | 1021.4 hPa | 1.02 mm | - | - | - |
| 1778095829 | 3.33° C | 57% | 1021.3 hPa | 1.02 mm | - | - | - |
| 1778095530 | 2.78° C | 52% | 1021.2 hPa | 0.76 mm | - | - | - |
| 1778095230 | 3.33° C | 55% | 1021 hPa | 0.51 mm | - | - | - |
| 1778094931 | 2.78° C | 58% | 1020.2 hPa | 0 mm | - | - | - |
| 1778094629 | 2.22° C | 68% | 1020.2 hPa | 0 mm | - | - | - |
| 1778094212 | 2.22° C | 63% | 1020.2 hPa | 0 mm | - | - | - |
| 1778093912 | 2.22° C | 63% | 1020.2 hPa | 0 mm | - | - | - |
| 1778093612 | 2.22° C | 62% | 1020.2 hPa | 0 mm | - | - | - |
| 1778093312 | 2.22° C | 58% | 1020.1 hPa | 0 mm | - | - | - |
| 1778093012 | 2.22° C | 57% | 1020.1 hPa | 0 mm | - | - | - |
| 1778092712 | 2.22° C | 59% | 1020.1 hPa | 0 mm | - | - | - |
| 1778092370 | 2.22° C | 59% | 1020.1 hPa | 0 mm | - | - | - |
| 1778092069 | 1.67° C | 64% | 1020 hPa | 0 mm | - | - | - |
| 1778091940 | 1.67° C | 64% | 1020.2 hPa | 0 mm | - | - | - |
| 1778091769 | 1.67° C | 64% | 1020.2 hPa | 0 mm | - | - | - |
| 1778091471 | 1.67° C | 62% | 1020.1 hPa | 0 mm | - | - | - |
| 1778091169 | 1.11° C | 66% | 1020.1 hPa | 0 mm | - | - | - |
| 1778090870 | 1.11° C | 66% | 1020 hPa | 0 mm | - | - | - |
* Rain latest hour (hover to see other rain measurements)
** Current wind speed in m/s (hover to see current wind gust speed)